Location: *
(34.8620°S, 39.3380°E)
Time: 22:29:28
(UTC+00:00)

SAOCOM 1-B - Pass Details

Date: 31 May 2022
Orbit: 621 x 623 km, 97.9° (Epoch: 01 July)

Event Time Altitude Azimuth Distance (km) Brightness Sun altitude
Rises 16:01:46 0° 328° (NNW) 2,893 ? -20.5°
Reaches altitude 10° 16:05:10 10° 298° (WNW) 2,000 ? -21.2°
Maximum altitude 16:07:05 13° 272° (W) 1,835 ? -21.6°
Drops below altitude 10° 16:09:00 10° 246° (WSW) 2,013 ? -22.0°
Sets 16:12:28 0° 217° (SW) 2,933 ? -22.7°
